Location: Casteau
(50.5142°N, 4.0161°E)
Time: 20:39:39
(UTC+00:00)

Transit 2A - Pass Details

Date: 01 August 2021
Orbit: 594 x 964 km, 66.7° (Epoch: 27 September)

Event Time Altitude Azimuth Distance (km) Brightness Sun altitude
Rises 05:13:35 0° 178° (S) 2,831 8.8 8.1°
Reaches altitude 10° 05:16:06 10° 164° (SSE) 1,955 8.2 8.5°
Maximum altitude 05:19:34 23° 111° (ESE) 1,325 8.2 9.0°
Drops below altitude 10° 05:23:14 10° 59° (ENE) 2,075 10.3 9.6°
Sets 05:26:00 0° 45° (NE) 3,053 10.3 10.0°
